QPF
0.00 0.00 0.00 0.00 0.00 0.00 0.00 0.00 0.00 0.00 0.00 0.00 0.00 0.00 0.00 0.00 0.01 0.02 0.02 0.05 0.04 0.02 0.02 0.03 0.03 0.03 0.03 0.04 0.03 0.03 0.05 0.13 0.19 0.22 0.17 0.12 0.14 0.14 0.13 0.12 0.05 0.04 0.04 0.04
0.00 0.00 0.00 0.00 0.00 0.00 0.00 0.00 0.00 0.00 0.00 0.00 0.00 0.00 0.00 0.00 0.00 0.01 0.01 0.03 0.03 0.02 0.03 0.03 0.04 0.04 0.03 0.04 0.03 0.03 0.05 0.11 0.15 0.17 0.14 0.11 0.16 0.12 0.10 0.13 0.07 0.04 0.03 0.04
0.00 0.00 0.00 0.00 0.00 0.00 0.00 0.00 0.00 0.00 0.01 0.00 0.00 0.00 0.00 0.00 0.00 0.00 0.01 0.01 0.02 0.03 0.05 0.07 0.05 0.03 0.03 0.04 0.04 0.05 0.08 0.11 0.12 0.13 0.13 0.16 0.20 0.14 0.11 0.11 0.07 0.06 0.04 0.03
0.00 0.00 0.00 0.00 0.00 0.00 0.00 0.00 0.00 0.00 0.00 0.00 0.00 0.00 0.01 0.01 0.01 0.01 0.01 0.03 0.04 0.09 0.12 0.09 0.04 0.03 0.03 0.03 0.04 0.05 0.07 0.09 0.10 0.12 0.13 0.14 0.16 0.11 0.10 0.11 0.07 0.06 0.04 0.03
0.00 0.00 0.00 0.00 0.00 0.00 0.00 0.00 0.00 0.00 0.00 0.00 0.00 0.00 0.01 0.01 0.01 0.02 0.02 0.03 0.05 0.07 0.10 0.07 0.04 0.03 0.03 0.03 0.03 0.03 0.05 0.07 0.07 0.09 0.11 0.13 0.13 0.10 0.10 0.10 0.09 0.07 0.05 0.04
0.00 0.00 0.00 0.00 0.00 0.00 0.00 0.00 0.00 0.00 0.00 0.00 0.00 0.00 0.01 0.01 0.01 0.02 0.05 0.07 0.07 0.05 0.05 0.05 0.05 0.05 0.04 0.04 0.03 0.02 0.04 0.05 0.05 0.07 0.08 0.12 0.14 0.13 0.11 0.10 0.09 0.08 0.08 0.07
0.00 0.00 0.00 0.00 0.00 0.00 0.00 0.00 0.00 0.00 0.00 0.00 0.00 0.00 0.01 0.01 0.01 0.01 0.03 0.07 0.05 0.03 0.03 0.03 0.05 0.06 0.04 0.03 0.03 0.04 0.04 0.03 0.05 0.06 0.07 0.11 0.14 0.13 0.10 0.10 0.08 0.10 0.08 0.07
0.00 0.00 0.00 0.00 0.00 0.00 0.00 0.00 0.00 0.00 0.00 0.02 0.01 0.00 0.01 0.01 0.02 0.03 0.04 0.05 0.08 0.06 0.03 0.02 0.03 0.02 0.03 0.03 0.03 0.04 0.03 0.03 0.04 0.06 0.08 0.11 0.11 0.09 0.07 0.09 0.10 0.09 0.07 0.06
0.00 0.00 0.00 0.00 0.00 0.00 0.00 0.00 0.00 0.00 0.00 0.00 0.00 0.01 0.02 0.01 0.02 0.05 0.05 0.04 0.05 0.04 0.02 0.02 0.02 0.01 0.02 0.03 0.02 0.02 0.02 0.03 0.03 0.05 0.06 0.09 0.07 0.05 0.06 0.06 0.06 0.09 0.08 0.07
0.00 0.00 0.00 0.00 0.00 0.00 0.00 0.00 0.00 0.00 0.00 0.00 0.00 0.02 0.04 0.03 0.04 0.10 0.06 0.05 0.05 0.04 0.04 0.03 0.01 0.01 0.02 0.02 0.02 0.02 0.02 0.03 0.04 0.06 0.04 0.03 0.04 0.06 0.07 0.06 0.06 0.08 0.10 0.09
0.00 0.00 0.00 0.00 0.00 0.00 0.00 0.00 0.00 0.00 0.00 0.00 0.01 0.02 0.04 0.03 0.04 0.07 0.06 0.06 0.05 0.05 0.05 0.03 0.01 0.01 0.02 0.01 0.02 0.02 0.02 0.03 0.05 0.05 0.02 0.02 0.02 0.05 0.06 0.05 0.04 0.05 0.06 0.07
0.00 0.00 0.00 0.00 0.00 0.00 0.00 0.00 0.00 0.00 0.00 0.00 0.00 0.01 0.03 0.02 0.02 0.03 0.05 0.06 0.05 0.06 0.05 0.04 0.02 0.01 0.01 0.01 0.01 0.02 0.02 0.02 0.03 0.04 0.03 0.03 0.03 0.03 0.04 0.04 0.06 0.09 0.08 0.08
0.00 0.00 0.00 0.00 0.00 0.00 0.00 0.00 0.00 0.00 0.00 0.00 0.00 0.01 0.01 0.02 0.03 0.03 0.05 0.10 0.06 0.05 0.05 0.05 0.04 0.03 0.02 0.01 0.01 0.01 0.01 0.01 0.02 0.04 0.05 0.04 0.05 0.06 0.05 0.05 0.07 0.12 0.10 0.09
0.00 0.00 0.00 0.00 0.00 0.00 0.00 0.00 0.00 0.00 0.00 0.00 0.00 0.01 0.02 0.04 0.07 0.09 0.07 0.07 0.05 0.06 0.06 0.09 0.06 0.03 0.02 0.01 0.01 0.01 0.01 0.01 0.02 0.03 0.05 0.07 0.06 0.08 0.09 0.08 0.07 0.11 0.12 0.09
0.00 0.00 0.00 0.00 0.00 0.00 0.00 0.00 0.00 0.00 0.00 0.00 0.00 0.01 0.01 0.06 0.11 0.12 0.09 0.05 0.06 0.10 0.07 0.06 0.08 0.03 0.02 0.01 0.01 0.01 0.01 0.02 0.01 0.02 0.04 0.06 0.08 0.08 0.08 0.09 0.09 0.11 0.12 0.11
0.00 0.00 0.00 0.00 0.00 0.00 0.00 0.00 0.00 0.00 0.00 0.00 0.00 0.01 0.02 0.04 0.05 0.07 0.07 0.05 0.06 0.13 0.07 0.04 0.03 0.02 0.01 0.01 0.01 0.01 0.01 0.01 0.01 0.02 0.02 0.04 0.06 0.08 0.07 0.07 0.08 0.09 0.10 0.09
0.00 0.00 0.00 0.00 0.00 0.00 0.00 0.00 0.00 0.00 0.00 0.00 0.00 0.01 0.02 0.04 0.05 0.06 0.07 0.05 0.05 0.08 0.06 0.08 0.07 0.04 0.02 0.01 0.01 0.01 0.01 0.02 0.02 0.02 0.04 0.04 0.04 0.05 0.07 0.09 0.09 0.08 0.08 0.08
0.00 0.00 0.00 0.00 0.00 0.00 0.00 0.00 0.00 0.00 0.00 0.00 0.00 0.01 0.01 0.05 0.03 0.03 0.05 0.05 0.06 0.06 0.08 0.11 0.12 0.08 0.05 0.03 0.02 0.02 0.02 0.02 0.02 0.03 0.03 0.04 0.04 0.05 0.06 0.07 0.07 0.08 0.08 0.08
0.00 0.00 0.00 0.00 0.00 0.01 0.01 0.00 0.00 0.00 0.01 0.01 0.01 0.01 0.02 0.02 0.04 0.09 0.11 0.11 0.14 0.13 0.11 0.11 0.08 0.08 0.06 0.05 0.04 0.03 0.02 0.03 0.03 0.04 0.05 0.05 0.05 0.05 0.05 0.06 0.07 0.08 0.09 0.10
0.00 0.00 0.00 0.00 0.00 0.00 0.01 0.01 0.01 0.01 0.06 0.04 0.04 0.03 0.03 0.03 0.05 0.09 0.09 0.10 0.13 0.13 0.14 0.12 0.10 0.09 0.08 0.08 0.08 0.07 0.05 0.05 0.06 0.06 0.07 0.06 0.05 0.05 0.06 0.07 0.08 0.11 0.13 0.12
0.01 0.00 0.00 0.00 0.00 0.00 0.01 0.01 0.02 0.04 0.08 0.10 0.09 0.07 0.07 0.06 0.06 0.08 0.09 0.09 0.14 0.13 0.11 0.12 0.12 0.12 0.11 0.12 0.12 0.09 0.07 0.07 0.08 0.07 0.08 0.07 0.06 0.06 0.06 0.07 0.09 0.12 0.13 0.12
0.01 0.01 0.00 0.00 0.00 0.01 0.01 0.01 0.03 0.05 0.09 0.17 0.20 0.15 0.12 0.10 0.09 0.12 0.11 0.10 0.11 0.09 0.08 0.10 0.13 0.12 0.10 0.12 0.20 0.17 0.10 0.08 0.07 0.07 0.09 0.08 0.07 0.07 0.06 0.05 0.06 0.08 0.10 0.10
0.02 0.02 0.01 0.01 0.02 0.02 0.01 0.02 0.03 0.04 0.09 0.12 0.15 0.13 0.13 0.12 0.16 0.19 0.19 0.19 0.16 0.12 0.10 0.10 0.13 0.15 0.12 0.09 0.09 0.14 0.12 0.08 0.07 0.08 0.08 0.06 0.04 0.04 0.05 0.05 0.07 0.08 0.08 0.08
0.05 0.04 0.05 0.05 0.04 0.04 0.03 0.04 0.07 0.07 0.08 0.10 0.15 0.16 0.14 0.14 0.18 0.19 0.14 0.12 0.12 0.12 0.11 0.09 0.11 0.13 0.09 0.06 0.06 0.07 0.09 0.07 0.04 0.04 0.04 0.03 0.03 0.03 0.05 0.07 0.07 0.09 0.10 0.10
0.06 0.08 0.10 0.10 0.08 0.07 0.06 0.09 0.12 0.09 0.09 0.10 0.12 0.13 0.14 0.12 0.14 0.15 0.10 0.07 0.06 0.05 0.05 0.05 0.07 0.05 0.03 0.05 0.05 0.04 0.04 0.05 0.04 0.03 0.02 0.02 0.03 0.04 0.04 0.05 0.05 0.06 0.09 0.13
0.06 0.09 0.11 0.12 0.11 0.11 0.10 0.09 0.10 0.08 0.07 0.09 0.09 0.09 0.09 0.08 0.09 0.10 0.06 0.04 0.04 0.04 0.03 0.03 0.04 0.02 0.02 0.02 0.03 0.03 0.04 0.05 0.06 0.06 0.05 0.04 0.03 0.04 0.04 0.04 0.05 0.07 0.09 0.10
MSLP
1011.85 1012.61 1013.15 1013.47 1013.57 1013.49 1013.28 1012.99 1012.63 1012.22 1011.78 1011.33 1010.87 1010.43 1010.04 1009.74 1009.57 1009.52 1009.60 1009.79 1010.05 1010.33 1010.59 1010.80 1010.95 1011.06 1011.17 1011.31 1011.53 1011.86 1012.31 1012.87 1013.51 1014.17 1014.82 1015.41 1015.90 1016.29 1016.58 1016.81 1017.00 1017.17 1017.37 1017.58
1012.33 1012.85 1013.15 1013.26 1013.24 1013.15 1013.03 1012.91 1012.79 1012.64 1012.44 1012.15 1011.77 1011.32 1010.84 1010.40 1010.06 1009.86 1009.83 1009.96 1010.20 1010.51 1010.82 1011.08 1011.27 1011.38 1011.45 1011.54 1011.69 1011.96 1012.37 1012.92 1013.57 1014.28 1014.97 1015.60 1016.12 1016.50 1016.76 1016.94 1017.06 1017.18 1017.33 1017.52
1012.56 1012.81 1012.86 1012.79 1012.68 1012.62 1012.64 1012.76 1012.93 1013.07 1013.12 1013.01 1012.71 1012.23 1011.65 1011.04 1010.50 1010.12 1009.94 1009.98 1010.21 1010.54 1010.91 1011.24 1011.48 1011.63 1011.70 1011.75 1011.86 1012.07 1012.45 1012.98 1013.64 1014.37 1015.10 1015.76 1016.30 1016.69 1016.93 1017.06 1017.13 1017.20 1017.30 1017.47
1012.54 1012.54 1012.37 1012.16 1012.01 1012.03 1012.25 1012.64 1013.12 1013.57 1013.87 1013.92 1013.67 1013.15 1012.42 1011.61 1010.84 1010.25 1009.91 1009.85 1010.03 1010.39 1010.82 1011.24 1011.56 1011.77 1011.87 1011.92 1012.00 1012.18 1012.52 1013.02 1013.68 1014.42 1015.17 1015.86 1016.42 1016.81 1017.05 1017.16 1017.19 1017.22 1017.29 1017.42
1012.35 1012.13 1011.79 1011.50 1011.38 1011.53 1011.98 1012.66 1013.44 1014.18 1014.69 1014.87 1014.65 1014.04 1013.14 1012.10 1011.09 1010.27 1009.75 1009.57 1009.71 1010.08 1010.59 1011.10 1011.52 1011.81 1011.97 1012.04 1012.12 1012.27 1012.57 1013.04 1013.67 1014.40 1015.16 1015.86 1016.44 1016.86 1017.10 1017.20 1017.23 1017.23 1017.26 1017.37
1012.04 1011.66 1011.24 1010.94 1010.90 1011.22 1011.90 1012.85 1013.91 1014.88 1015.56 1015.82 1015.57 1014.85 1013.77 1012.49 1011.24 1010.20 1009.50 1009.21 1009.30 1009.70 1010.27 1010.88 1011.41 1011.79 1012.01 1012.13 1012.21 1012.34 1012.60 1013.02 1013.61 1014.32 1015.07 1015.78 1016.37 1016.80 1017.07 1017.18 1017.21 1017.21 1017.23 1017.31
1011.69 1011.23 1010.78 1010.53 1010.62 1011.12 1012.02 1013.20 1014.47 1015.61 1016.39 1016.67 1016.37 1015.53 1014.27 1012.79 1011.32 1010.09 1009.25 1008.86 1008.91 1009.33 1009.96 1010.66 1011.28 1011.76 1012.06 1012.21 1012.30 1012.41 1012.63 1013.00 1013.53 1014.19 1014.91 1015.60 1016.20 1016.66 1016.94 1017.09 1017.14 1017.14 1017.16 1017.24
1011.32 1010.85 1010.45 1010.29 1010.52 1011.19 1012.26 1013.61 1015.02 1016.24 1017.06 1017.32 1016.95 1016.00 1014.60 1012.96 1011.35 1009.99 1009.04 1008.59 1008.63 1009.06 1009.74 1010.51 1011.22 1011.78 1012.14 1012.33 1012.43 1012.51 1012.68 1012.99 1013.45 1014.04 1014.70 1015.37 1015.96 1016.42 1016.74 1016.92 1017.01 1017.04 1017.08 1017.15
1010.96 1010.53 1010.21 1010.17 1010.54 1011.34 1012.52 1013.95 1015.41 1016.65 1017.45 1017.66 1017.22 1016.19 1014.72 1013.01 1011.34 1009.93 1008.95 1008.48 1008.51 1008.96 1009.68 1010.50 1011.27 1011.87 1012.28 1012.50 1012.60 1012.66 1012.78 1013.01 1013.39 1013.90 1014.49 1015.10 1015.67 1016.13 1016.47 1016.69 1016.82 1016.89 1016.96 1017.06
1010.59 1010.24 1010.03 1010.10 1010.57 1011.44 1012.66 1014.09 1015.51 1016.69 1017.42 1017.58 1017.11 1016.06 1014.60 1012.92 1011.29 1009.93 1008.98 1008.54 1008.60 1009.06 1009.80 1010.63 1011.42 1012.05 1012.48 1012.71 1012.81 1012.85 1012.93 1013.09 1013.39 1013.80 1014.31 1014.85 1015.37 1015.82 1016.17 1016.42 1016.59 1016.72 1016.83 1016.96
1010.21 1009.96 1009.85 1010.01 1010.52 1011.40 1012.57 1013.91 1015.22 1016.28 1016.93 1017.04 1016.57 1015.59 1014.23 1012.69 1011.21 1009.97 1009.14 1008.77 1008.87 1009.34 1010.06 1010.87 1011.64 1012.27 1012.70 1012.94 1013.04 1013.07 1013.11 1013.22 1013.44 1013.77 1014.18 1014.64 1015.10 1015.51 1015.86 1016.13 1016.35 1016.53 1016.70 1016.88
1009.84 1009.68 1009.65 1009.85 1010.36 1011.17 1012.22 1013.40 1014.54 1015.45 1016.00 1016.07 1015.66 1014.80 1013.63 1012.32 1011.07 1010.04 1009.37 1009.10 1009.24 1009.71 1010.40 1011.16 1011.88 1012.47 1012.89 1013.14 1013.25 1013.28 1013.31 1013.39 1013.55 1013.80 1014.12 1014.49 1014.88 1015.24 1015.57 1015.86 1016.12 1016.36 1016.60 1016.85
1009.50 1009.41 1009.43 1009.64 1010.09 1010.77 1011.65 1012.61 1013.54 1014.28 1014.72 1014.78 1014.45 1013.77 1012.84 1011.82 1010.85 1010.08 1009.60 1009.46 1009.64 1010.09 1010.72 1011.41 1012.06 1012.60 1013.00 1013.25 1013.39 1013.45 1013.50 1013.57 1013.69 1013.89 1014.13 1014.42 1014.73 1015.04 1015.35 1015.65 1015.94 1016.24 1016.55 1016.87
1009.24 1009.21 1009.25 1009.42 1009.77 1010.29 1010.95 1011.67 1012.36 1012.91 1013.24 1013.29 1013.06 1012.58 1011.92 1011.21 1010.55 1010.05 1009.77 1009.74 1009.97 1010.39 1010.94 1011.54 1012.11 1012.60 1012.98 1013.26 1013.44 1013.55 1013.65 1013.75 1013.87 1014.03 1014.22 1014.44 1014.68 1014.94 1015.22 1015.52 1015.85 1016.21 1016.59 1016.99
1009.13 1009.12 1009.16 1009.28 1009.50 1009.83 1010.26 1010.72 1011.17 1011.52 1011.73 1011.77 1011.63 1011.33 1010.94 1010.52 1010.15 1009.90 1009.81 1009.90 1010.15 1010.54 1011.01 1011.52 1012.01 1012.46 1012.83 1013.14 1013.39 1013.59 1013.76 1013.91 1014.06 1014.22 1014.38 1014.55 1014.74 1014.96 1015.22 1015.52 1015.88 1016.29 1016.75 1017.23
1009.22 1009.22 1009.24 1009.28 1009.38 1009.52 1009.71 1009.92 1010.11 1010.27 1010.35 1010.35 1010.27 1010.13 1009.95 1009.79 1009.67 1009.64 1009.70 1009.88 1010.15 1010.50 1010.91 1011.34 1011.77 1012.18 1012.57 1012.93 1013.26 1013.56 1013.83 1014.07 1014.27 1014.45 1014.61 1014.76 1014.92 1015.11 1015.36 1015.67 1016.07 1016.53 1017.05 1017.60
1009.54 1009.54 1009.53 1009.50 1009.46 1009.43 1009.40 1009.36 1009.33 1009.28 1009.23 1009.17 1009.11 1009.06 1009.04 1009.06 1009.14 1009.27 1009.46 1009.70 1009.99 1010.31 1010.66 1011.04 1011.43 1011.84 1012.26 1012.68 1013.11 1013.52 1013.90 1014.23 1014.50 1014.73 1014.90 1015.06 1015.21 1015.40 1015.65 1015.99 1016.42 1016.94 1017.51 1018.13
1010.08 1010.08 1010.03 1009.93 1009.79 1009.60 1009.38 1009.13 1008.88 1008.64 1008.44 1008.29 1008.20 1008.19 1008.26 1008.39 1008.59 1008.84 1009.11 1009.41 1009.71 1010.02 1010.35 1010.69 1011.07 1011.50 1011.96 1012.46 1012.98 1013.49 1013.98 1014.41 1014.76 1015.05 1015.26 1015.44 1015.62 1015.82 1016.10 1016.47 1016.94 1017.50 1018.13 1018.79
1010.80 1010.78 1010.69 1010.54 1010.30 1009.99 1009.61 1009.19 1008.75 1008.34 1007.99 1007.73 1007.59 1007.56 1007.65 1007.84 1008.10 1008.42 1008.75 1009.08 1009.40 1009.72 1010.05 1010.40 1010.79 1011.24 1011.76 1012.32 1012.92 1013.53 1014.10 1014.62 1015.05 1015.40 1015.67 1015.90 1016.11 1016.36 1016.68 1017.09 1017.60 1018.20 1018.87 1019.55
1011.60 1011.55 1011.43 1011.23 1010.92 1010.52 1010.02 1009.46 1008.88 1008.33 1007.85 1007.48 1007.25 1007.17 1007.24 1007.44 1007.73 1008.07 1008.44 1008.81 1009.16 1009.51 1009.85 1010.23 1010.65 1011.14 1011.70 1012.32 1012.98 1013.65 1014.29 1014.87 1015.37 1015.78 1016.11 1016.40 1016.67 1016.97 1017.34 1017.80 1018.36 1018.99 1019.68 1020.37
1012.36 1012.27 1012.12 1011.88 1011.53 1011.06 1010.49 1009.85 1009.17 1008.51 1007.93 1007.47 1007.16 1007.02 1007.04 1007.22 1007.51 1007.87 1008.26 1008.66 1009.05 1009.44 1009.83 1010.24 1010.70 1011.23 1011.82 1012.47 1013.17 1013.87 1014.54 1015.16 1015.71 1016.17 1016.56 1016.91 1017.25 1017.62 1018.05 1018.56 1019.15 1019.81 1020.51 1021.19
1012.96 1012.83 1012.64 1012.37 1011.99 1011.50 1010.90 1010.22 1009.49 1008.78 1008.14 1007.62 1007.25 1007.06 1007.05 1007.20 1007.47 1007.83 1008.25 1008.68 1009.12 1009.55 1009.99 1010.45 1010.95 1011.50 1012.11 1012.77 1013.47 1014.17 1014.85 1015.49 1016.06 1016.56 1017.00 1017.42 1017.83 1018.26 1018.76 1019.32 1019.94 1020.61 1021.30 1021.97
1013.31 1013.12 1012.90 1012.60 1012.22 1011.73 1011.14 1010.47 1009.75 1009.05 1008.40 1007.86 1007.47 1007.25 1007.22 1007.35 1007.61 1007.98 1008.42 1008.88 1009.36 1009.85 1010.34 1010.84 1011.37 1011.94 1012.55 1013.20 1013.87 1014.55 1015.22 1015.84 1016.42 1016.95 1017.43 1017.90 1018.38 1018.88 1019.43 1020.03 1020.68 1021.35 1022.02 1022.66
1013.34 1013.10 1012.84 1012.53 1012.15 1011.69 1011.15 1010.53 1009.88 1009.23 1008.63 1008.12 1007.75 1007.54 1007.51 1007.64 1007.91 1008.28 1008.74 1009.24 1009.77 1010.30 1010.83 1011.37 1011.93 1012.50 1013.10 1013.72 1014.36 1015.00 1015.62 1016.22 1016.79 1017.33 1017.85 1018.37 1018.90 1019.46 1020.05 1020.68 1021.34 1022.00 1022.65 1023.25
1013.06 1012.77 1012.48 1012.16 1011.80 1011.39 1010.92 1010.39 1009.84 1009.29 1008.78 1008.36 1008.05 1007.89 1007.88 1008.02 1008.31 1008.71 1009.19 1009.72 1010.28 1010.86 1011.43 1012.00 1012.57 1013.14 1013.72 1014.31 1014.90 1015.49 1016.07 1016.63 1017.19 1017.73 1018.28 1018.83 1019.40 1019.99 1020.62 1021.26 1021.92 1022.56 1023.18 1023.73
1012.51 1012.18 1011.86 1011.54 1011.21 1010.86 1010.48 1010.07 1009.65 1009.23 1008.85 1008.54 1008.33 1008.24 1008.28 1008.47 1008.78 1009.20 1009.71 1010.27 1010.86 1011.47 1012.07 1012.67 1013.25 1013.82 1014.38 1014.93 1015.48 1016.02 1016.55 1017.08 1017.62 1018.16 1018.71 1019.28 1019.88 1020.50 1021.14 1021.78 1022.43 1023.04 1023.61 1024.12
Thickness
5814 5796 5784 5791 5797 5796 5797 5793 5792 5810 5836 5831 5820 5819 5824 5828 5826 5821 5818 5816 5812 5809 5809 5807 5803 5799 5793 5787 5783 5778 5772 5767 5762 5756 5752 5748 5745 5745 5745 5745 5746 5745 5745 5745
5790 5784 5801 5808 5808 5804 5798 5791 5795 5812 5833 5827 5816 5816 5825 5827 5825 5824 5820 5816 5811 5806 5803 5801 5798 5795 5791 5785 5781 5777 5772 5767 5763 5759 5755 5751 5748 5745 5744 5744 5744 5744 5744 5744
5779 5795 5812 5806 5800 5796 5796 5794 5799 5806 5818 5822 5812 5798 5807 5818 5822 5822 5822 5819 5815 5809 5803 5799 5795 5792 5790 5785 5780 5777 5772 5768 5763 5759 5754 5750 5745 5742 5740 5740 5741 5743 5743 5744
5784 5802 5805 5800 5798 5800 5786 5811 5813 5811 5795 5782 5795 5764 5787 5801 5805 5809 5812 5812 5811 5809 5805 5799 5795 5791 5787 5784 5781 5777 5772 5768 5764 5759 5754 5748 5743 5740 5741 5741 5741 5742 5742 5743
5783 5801 5799 5795 5805 5810 5802 5820 5816 5809 5793 5778 5781 5766 5774 5794 5791 5799 5807 5811 5812 5811 5806 5800 5797 5793 5788 5784 5780 5776 5771 5767 5764 5760 5755 5750 5746 5744 5743 5742 5740 5740 5742 5742
5790 5808 5808 5808 5819 5821 5820 5812 5797 5781 5769 5753 5770 5764 5764 5781 5793 5801 5808 5811 5811 5810 5806 5800 5796 5791 5786 5783 5779 5775 5769 5765 5763 5759 5755 5751 5746 5743 5741 5740 5738 5739 5740 5741
5775 5793 5810 5817 5805 5812 5808 5771 5744 5743 5732 5740 5768 5764 5767 5798 5809 5811 5809 5810 5810 5808 5802 5797 5792 5787 5784 5780 5777 5773 5768 5764 5761 5758 5754 5751 5748 5745 5743 5741 5739 5738 5738 5739
5750 5759 5795 5810 5802 5792 5791 5772 5738 5728 5726 5738 5762 5759 5779 5810 5817 5818 5815 5811 5808 5803 5799 5796 5792 5788 5784 5781 5777 5772 5767 5763 5761 5757 5754 5751 5749 5746 5744 5743 5741 5739 5739 5740
5748 5756 5799 5813 5818 5805 5786 5772 5772 5746 5742 5735 5744 5764 5785 5805 5804 5805 5803 5802 5800 5799 5796 5793 5791 5788 5784 5780 5776 5772 5767 5763 5760 5757 5754 5751 5749 5747 5745 5743 5742 5740 5740 5740
5763 5757 5783 5805 5812 5809 5801 5788 5756 5740 5725 5720 5737 5749 5757 5780 5786 5794 5794 5796 5796 5795 5792 5790 5788 5785 5782 5779 5775 5772 5767 5763 5760 5757 5754 5752 5749 5747 5746 5744 5741 5740 5739 5739
5768 5752 5764 5780 5783 5782 5788 5781 5763 5742 5736 5722 5719 5739 5784 5787 5792 5792 5793 5795 5794 5790 5788 5786 5785 5783 5780 5776 5772 5768 5765 5762 5759 5757 5755 5752 5749 5747 5745 5743 5742 5741 5740 5739
5769 5750 5742 5762 5791 5804 5794 5783 5764 5743 5738 5732 5726 5744 5798 5798 5798 5796 5794 5795 5794 5790 5788 5785 5783 5779 5775 5771 5768 5765 5762 5760 5758 5756 5753 5751 5749 5747 5744 5743 5742 5740 5738 5738
5767 5744 5730 5739 5760 5786 5787 5786 5775 5761 5744 5731 5726 5747 5792 5794 5794 5795 5794 5791 5790 5785 5783 5780 5778 5774 5771 5768 5766 5763 5760 5758 5756 5754 5751 5749 5746 5745 5743 5741 5740 5738 5736 5735
5778 5745 5736 5732 5744 5768 5775 5784 5782 5760 5739 5736 5743 5754 5774 5782 5785 5788 5788 5788 5785 5781 5779 5775 5771 5770 5768 5766 5764 5761 5758 5757 5754 5751 5748 5746 5744 5743 5741 5739 5737 5735 5733 5732
5766 5745 5752 5758 5772 5778 5778 5780 5782 5770 5760 5750 5756 5761 5774 5783 5785 5786 5787 5784 5781 5777 5774 5771 5768 5766 5764 5762 5760 5758 5756 5754 5752 5748 5745 5743 5742 5740 5738 5736 5734 5732 5730 5728
5750 5744 5750 5755 5770 5774 5773 5780 5782 5779 5775 5769 5768 5767 5785 5787 5786 5784 5783 5781 5777 5774 5773 5771 5767 5764 5761 5759 5757 5755 5752 5751 5749 5745 5742 5740 5738 5736 5733 5731 5729 5726 5725 5722
5736 5735 5729 5730 5753 5758 5749 5769 5776 5777 5781 5776 5765 5772 5781 5778 5778 5778 5780 5780 5776 5773 5771 5767 5763 5761 5759 5757 5755 5751 5749 5747 5744 5741 5738 5736 5734 5731 5729 5727 5724 5721 5719 5717
5731 5725 5716 5720 5734 5722 5746 5778 5782 5777 5776 5780 5779 5779 5779 5778 5777 5777 5778 5776 5773 5770 5766 5761 5758 5756 5755 5753 5750 5748 5745 5742 5739 5736 5734 5732 5729 5727 5724 5722 5719 5716 5714 5711
5733 5723 5711 5704 5708 5723 5751 5770 5773 5765 5757 5773 5773 5773 5772 5773 5769 5763 5769 5771 5767 5765 5761 5756 5754 5752 5749 5747 5745 5741 5737 5735 5732 5730 5728 5726 5724 5721 5719 5716 5713 5711 5708 5705
5724 5720 5707 5701 5703 5704 5734 5765 5777 5765 5739 5762 5768 5767 5767 5766 5747 5747 5760 5763 5760 5758 5753 5748 5746 5744 5741 5738 5736 5732 5728 5726 5724 5723 5722 5721 5719 5716 5713 5710 5707 5704 5701 5697
5699 5699 5697 5695 5697 5710 5740 5760 5765 5733 5731 5755 5761 5763 5762 5756 5753 5752 5752 5752 5751 5748 5744 5741 5738 5734 5731 5730 5727 5722 5719 5717 5716 5716 5714 5713 5711 5708 5706 5703 5699 5696 5693 5689
5682 5683 5685 5686 5687 5698 5738 5746 5736 5734 5747 5751 5754 5755 5752 5750 5748 5746 5743 5741 5740 5736 5733 5731 5727 5722 5720 5720 5718 5714 5711 5710 5708 5707 5705 5703 5701 5700 5697 5694 5690 5687 5684 5680
5676 5680 5681 5687 5693 5713 5730 5734 5739 5744 5742 5744 5745 5745 5745 5742 5737 5735 5731 5730 5729 5726 5722 5719 5717 5712 5710 5710 5709 5705 5702 5701 5699 5697 5694 5692 5690 5688 5685 5683 5680 5676 5674 5670
5672 5682 5681 5684 5695 5707 5718 5726 5731 5737 5737 5738 5739 5737 5737 5732 5728 5724 5720 5717 5717 5714 5710 5707 5706 5702 5700 5699 5698 5696 5694 5692 5690 5687 5683 5680 5678 5675 5672 5670 5668 5665 5662 5659
5663 5670 5670 5674 5687 5697 5705 5713 5719 5725 5729 5729 5728 5728 5726 5723 5717 5713 5709 5706 5705 5703 5701 5699 5695 5692 5690 5689 5688 5686 5685 5682 5679 5675 5672 5668 5665 5661 5657 5654 5651 5650 5648 5648
5656 5660 5662 5666 5680 5685 5690 5701 5710 5713 5714 5717 5716 5715 5714 5713 5709 5704 5699 5696 5695 5691 5689 5688 5686 5683 5681 5679 5677 5676 5675 5672 5668 5664 5660 5657 5652 5648 5645 5642 5637 5634 5633 5632